Weather History for Plymouth, MA

Change the Weather History Date:

Sunday, May 12, 2013

  Actual Average Record
Temperature  
Mean Temperature 62 °F -  
Max Temperature 71 °F 66 °F 89 °F (1959)
Min Temperature 51 °F 44 °F 33 °F (2005)
Degree Days  
Heating Degree Days 3    
Growing Degree Days 12 (Base 50)    
Moisture  
Dew Point 52 °F    
Average Humidity 73    
Maximum Humidity 94    
Minimum Humidity 45    
Precipitation  
Precipitation 0.10 in - - ()
Sea Level Pressure  
Sea Level Pressure 29.66 in    
Wind  
Wind Speed 8 mph (SW)    
Max Wind Speed 18 mph    
Max Gust Speed 36 mph    
Visibility 8 miles    
Events Fog , Rain    
Averages and records for this station are not official NWS values.
T = Trace of Precipitation, MM = Missing Value Source: NWS Daily Summary

Daily Weather History Graph

Daily Weather History Graph

Search for Another Location

Airport:

Trip Planner

Search our weather history database for the weather conditions in past years. The results will help you decide how hot, cold, wet, or windy it might be!

Date:

Astronomy

May. 12, 2013 Rise Set
Actual Time 5:25 AM EDT 7:53 PM EDT
Civil Twilight 4:54 AM EDT 8:25 PM EDT
Nautical Twilight 4:14 AM EDT 9:04 PM EDT
Astronomical Twilight 3:30 AM EDT 9:48 PM EDT
Moon 7:17 AM EDT (5/12) 10:18 PM EDT (5/12)
Length of Visible Light 15h 31m
Length of Day
14h 28m
Waxing Crescent, 6% of the Moon is Illuminated
May 12
Waxing Crescent
May 18
First Quarter
May 25
Full
May 31
Last Quarter
Jun 8
New

Hourly Weather History & Observations

Time (EDT) Temp. Dew Point Humidity Pressure Visibility Wind Dir Wind Speed Gust Speed Precip Events Conditions
1:19 AM 60.8 °F 57.2 °F 88% 29.72 in 5.0 mi SSW 6.9 mph - N/A   Overcast
1:52 AM 59.0 °F 57.0 °F 93% 29.70 in 2.0 mi South 6.9 mph - N/A   Overcast
2:19 AM 59.0 °F 57.2 °F 94% 29.69 in 3.0 mi Variable 6.9 mph - N/A   Overcast
2:30 AM 59.0 °F 55.4 °F 88% 29.69 in 1.8 mi South 9.2 mph - N/A   Overcast
2:52 AM 57.9 °F 55.9 °F 93% 29.68 in 0.8 mi SW 6.9 mph - N/A   Overcast
3:52 AM 57.9 °F 55.9 °F 93% 29.67 in 0.8 mi South 5.8 mph - N/A   Mist
4:52 AM 57.9 °F 55.9 °F 93% 29.67 in 0.5 mi SSW 9.2 mph - N/A Fog Fog
5:29 AM 57.2 °F 55.4 °F 94% 29.68 in 3.0 mi SSW 8.1 mph - 0.03 in Rain Light Rain
5:52 AM 57.9 °F 55.9 °F 93% 29.67 in 6.0 mi SSE 5.8 mph - 0.05 in Rain Light Rain
6:52 AM 57.9 °F 55.0 °F 90% 29.66 in 10.0 mi Variable 4.6 mph - 0.02 in Rain Light Rain
7:52 AM 57.9 °F 55.0 °F 90% 29.65 in 7.0 mi South 3.5 mph - 0.01 in Rain Light Rain
8:52 AM 57.9 °F 55.9 °F 93% 29.65 in 7.0 mi SW 8.1 mph - 0.01 in Rain Light Rain
9:52 AM 60.1 °F 57.0 °F 90% 29.64 in 8.0 mi SW 10.4 mph - N/A   Overcast
10:52 AM 62.1 °F 57.9 °F 86% 29.63 in 9.0 mi WSW 8.1 mph - N/A   Overcast
11:32 AM 64.4 °F 57.2 °F 77% 29.62 in 10.0 mi SSW 8.1 mph - N/A   Mostly Cloudy
11:41 AM 64.4 °F 57.2 °F 77% 29.62 in 10.0 mi SW 9.2 mph - N/A   Mostly Cloudy
11:52 AM 64.9 °F 57.0 °F 75% 29.62 in 10.0 mi SW 10.4 mph - N/A   Mostly Cloudy
12:16 PM 66.2 °F 57.2 °F 73% 29.62 in 10.0 mi SW 13.8 mph 20.7 mph 0.01 in   Mostly Cloudy
12:52 PM 66.9 °F 55.0 °F 66% 29.62 in 10.0 mi SW 12.7 mph - 0.01 in   Mostly Cloudy
1:07 PM 66.2 °F 53.6 °F 64% 29.62 in 10.0 mi SW 15.0 mph - N/A   Scattered Clouds
1:52 PM 69.1 °F 51.1 °F 53% 29.61 in 10.0 mi SW 15.0 mph 24.2 mph N/A   Scattered Clouds
2:52 PM 69.1 °F 51.1 °F 53% 29.59 in 10.0 mi SSW 10.4 mph 19.6 mph N/A   Scattered Clouds
3:52 PM 70.0 °F 53.1 °F 55% 29.59 in 10.0 mi SSW 13.8 mph 19.6 mph N/A   Partly Cloudy
4:52 PM 69.1 °F 52.0 °F 54% 29.59 in 10.0 mi SSW 12.7 mph 20.7 mph N/A   Clear
5:52 PM 69.1 °F 52.0 °F 54% 29.60 in 10.0 mi SSW 9.2 mph 20.7 mph N/A   Clear
6:52 PM 66.0 °F 48.0 °F 52% 29.65 in 10.0 mi WNW 12.7 mph 35.7 mph N/A   Mostly Cloudy
6:59 PM 64.4 °F 46.4 °F 52% 29.65 in 10.0 mi WNW 18.4 mph 26.5 mph N/A   Mostly Cloudy
7:52 PM 60.1 °F 39.9 °F 47% 29.69 in 10.0 mi WNW 16.1 mph 21.9 mph N/A   Clear
8:52 PM 57.0 °F 39.0 °F 51% 29.73 in 10.0 mi WNW 6.9 mph - N/A   Partly Cloudy
9:52 PM 55.9 °F 35.1 °F 45% 29.76 in 10.0 mi WNW 5.8 mph - N/A   Partly Cloudy
10:52 PM 54.0 °F 34.0 °F 47% 29.78 in 10.0 mi Calm Calm - N/A   Clear
11:52 PM 51.1 °F 32.0 °F 48% 29.82 in 10.0 mi WNW 8.1 mph - N/A   Clear